Regional Weather Roundup
Issued by NWS

Home | Current Version | Previous Version | Graphics & Text | Print | Product List | Glossary On
Versions: 1 2 3 4 5 6 7 8 9 10 11 12 13 14 15 16 17 18 19 20 21 22 23 24 25 26 27 28 29 30 31 32 33 34 35 36 37 38 39 40 41 42 43 44 45 46 47 48 49 50
000
ASUS43 KDTX 060910
RWRMI
MICHIGAN HOURLY REGIONAL WEATHER ROUNDUP
NATIONAL WEATHER SERVICE DETROIT/PONTIAC MI
500 AM EDT FRI MAY 06 2016

NOTE: "FAIR" INDICATES FEW OR NO CLOUDS BELOW 12,000 FEET WITH NO
SIGNIFICANT WEATHER AND/OR OBSTRUCTION TO VISIBILITY.

MIZ047>049-052>055-059>063-066>070-074>076-081>083-061000-
SOUTHEAST LOWER MICHIGAN

CITY           SKY/WX    TMP DP  RH WIND       PRES   REMARKS
ADRIAN         CLEAR     47  42  83 N6        29.92F
ALMA           CLEAR     37  37 100 CALM      29.93F
BAD AXE        CLEAR     35  35  99 CALM      29.93R
CARO             N/A     37  37  97 CALM      29.92S FOG
DETROIT CITY   CLEAR     48  33  56 N3        29.91S
DETROIT        PTCLDY    48  34  58 NW5       29.92R
FLINT          CLEAR     42  38  85 SW3       29.94R
GROSSE ILE     CLEAR     45  36  70 N3        29.90S
HILLSDALE      PTCLDY    43  40  86 CALM      29.93R
HOWELL         CLEAR     42  38  84 CALM      29.92S

CITY           SKY/WX    TMP DP  RH WIND       PRES   REMARKS
JACKSON        PTCLDY    44  42  93 SW3       29.93R
LAMBERTVILLE   CLEAR     42  39  88 CALM      29.92S
LANSING        PTCLDY    43  40  89 CALM      29.94R
LAPEER         FAIR      37  37  97 CALM      29.92S
MASON          CLEAR     41  40  93 CALM      29.93S
MONROE         CLEAR     42  37  82 W8        29.90S
MT. CLEMENS    CLEAR     45  36  71 N6        29.90S
PONTIAC        CLEAR     45  36  70 N5        29.91S
PORT HOPE        N/A     42  39  89 W5        29.90S
PORT HURON     CLEAR     39  37  93 CALM      29.91S
TRI CITIES     CLEAR     47  38  71 CALM      29.93S
MIDLAND        FAIR      37  37  99 CALM      29.92S
TROY           CLEAR     49  35  56 NW5       29.93S
SAGINAW HB     PTCLDY    41  39  93 CALM      29.92S
$$
MIZ043>046-050>051-056>058-064>065-071>073-077>080-061000-
SOUTHWEST LOWER MICHIGAN

CITY           SKY/WX    TMP DP  RH WIND       PRES   REMARKS
BATTLE CREEK   CLEAR     43  36  76 CALM      29.95S
BENTON HARBOR  PTCLDY    35  33  92 CALM      29.97S
BIG RAPIDS     PTCLDY    36  33  89 CALM      29.94S
COLDWATER      CLEAR     40  37  88 W3        29.94S
FREMONT        FAIR      38  38 100 CALM      29.95S
HOLLAND        PTCLDY   N/A N/A N/A W5        29.96F
GRAND RAPIDS   PTCLDY    45  37  73 W3        29.95S
IONIA          FAIR      45  39  82 W7        29.93S
KALAMAZOO      CLEAR     41  34  76 CALM      29.95S
LUDINGTON      CLOUDY    37  36  98 CALM      29.94F
MARSHALL       CLEAR     41  37  86 CALM      29.94R
MOUNT PLEASANT CLEAR     41  40  97 CALM      29.93S FOG
MUSKEGON       PTCLDY    38  34  85 CALM      29.96S
SOUTH HAVEN    CLEAR     35  35  98 CALM      29.97S
$$
MIZ016>042-061000-
NORTHERN LOWER MICHIGAN

CITY           SKY/WX    TMP DP  RH WIND       PRES   REMARKS
ALPENA         CLEAR     39  36  89 CALM      29.92S
BEAVER ISLAND  CLEAR     34  32  92 CALM      29.90F
BELLAIRE       CLEAR     34  33  96 CALM      29.94S
CADILLAC       PTCLDY    33  32  97 CALM      29.93S
CHARLEVOIX     CLEAR     40  37  87 SE3       29.95S
FRANKFORT      PTCLDY    39  36  89 CALM      29.93F
GAYLORD        CLEAR     38  34  85 CALM      29.92S
GRAYLING       CLOUDY    35  34  94 CALM      29.94S
HARBOR SPRINGS CLEAR     37  34  89 CALM      29.92F
HOUGHTON LAKE  PTCLDY    38  36  92 CALM      29.93F
MANISTEE       CLOUDY    34  28  80 E5        29.95S WCI  30
OSCODA         CLEAR     37  32  84 W5        29.91F WCI  33
PELLSTON       CLEAR     33  31  92 NW3       29.92S
ROGERS CITY    CLEAR     42  35  75 W6        29.92F
TRAVERSE CITY  CLEAR     40  35  83 S5        29.92S
$$
MIZ007>008-015-061000-
EASTERN UPPER MICHIGAN

CITY           SKY/WX    TMP DP  RH WIND       PRES   REMARKS
KINROSS          N/A     43  37  81 SW3       29.90S
MACKINAC ISLAN CLEAR     42  35  74 SW8       29.91S
NEWBERRY       MOCLDY    39  37  93 S7        29.88F WCI  34
S. S. MARIE    CLEAR     40  34  79 CALM      29.90S
MUNISING         N/A     48  36  63 S12       29.84F
$$
MIZ004>006-011>014-085-061000-
CENTRAL UPPER MICHIGAN

CITY           SKY/WX    TMP DP  RH WIND       PRES   REMARKS
MANISTIQUE     CLEAR     39  38  94 S7        29.88F WCI  34
ESCANABA       CLEAR     45  39  81 CALM      29.87F
MENOMINEE      CLOUDY    48  45  87 SE6       29.89S
SAWYER-GWINN   CLEAR     42  36  78 SW6       29.83F
$$
MIZ001>003-009>011-084-061000-
WESTERN UPPER MICHIGAN

CITY           SKY/WX    TMP DP  RH WIND       PRES   REMARKS
IRON MOUNTAIN  CLOUDY    46  40  79 CALM      29.84F
HOUGHTON       CLEAR     44  35  70 E3        29.76F
IRONWOOD       CLEAR     57  39  51 SW8       29.77S
$$

ABBREVIATIONS USED IN REMARKS
   TC - TEMPERATURE IN CELSIUS
  WCI - WIND CHILL INDEX
   HX - HEAT INDEX
  VSB - VISIBILITY





USA.gov is the U.S. government's official web portal to all federal, state and local government web resources and services.